Voltar ao catálogo

IDEFIX/ARIANE 42P

AtivoRádio AmadorSSO
NORAD 27422·PAYLOAD·🇫🇷 France

Lançado May 4, 2002 de Guiana Space Centre

Loading…

Próximas Passagens (próximas 24 horas)

TLE

AtualizadoSource: Space-Track

Época: Sep 14, 2026, 06:32 UTC

1 27422U 02021B   26257.27283702  .00000147  00000-0  72316-4 0  9990
2 27422  98.5977 193.8022 0011869 358.4421   1.6723 14.31116089270991

Acompanhe IDEFIX/ARIANE 42P em tempo real com AllMySat

Download on the App Store